This demonstration page uses our WeatherBlox Daily Observations layout. Learn more.

Left ArrowRight Arrow

34.74481, -87.66753

Hourly Observations for December 4, 2019

Temp ( °F °C ) Dew Point ( °F °C ) Humidity (%) Winds ( mph kmh ) Pressure ( in mb ) Visibility ( mi km ) Precip ( " mm )
12:53 am 00:53 Clear 37 2.8 31 -0.6 79 79 Calm 29.90 1013 10 16 0.00 0.00
1:53 am 01:53 Clear 34 1.1 31 -0.6 89 89 Calm 29.89 1012 10 16 0.00 0.00
2:53 am 02:53 Clear 35 1.7 32 0 89 89 Calm 29.89 1012 10 16 0.00 0.00
3:53 am 03:53 Clear 34 1.1 30 -1.1 85 85 Calm 29.90 1013 10 16 0.00 0.00
4:53 am 04:53 Clear 34 1.1 31 -0.6 89 89 WNW 3 6 29.91 1013 10 16 0.00 0.00
5:53 am 05:53 Clear 37 2.8 33 0.6 86 86 W 3 6 29.93 1014 10 16 0.00 0.00
6:53 am 06:53 Sunny 34 1.1 32 0 92 92 Calm 29.94 1014 10 16 0.00 0.00
7:53 am 07:53 Sunny 39 3.9 33 0.6 79 79 Calm 29.96 1015 10 16 0.00 0.00
8:53 am 08:53 Sunny 47 8.3 33 0.6 59 59 WNW 6 9 29.97 1015 10 16 0.00 0.00
9:53 am 09:53 Sunny 51 10.6 33 0.6 50 50 NW 9 15 29.99 1016 10 16 0.00 0.00
10:53 am 10:53 Sunny 54 12.2 33 0.6 45 45 VRB 7 11 29.98 1015 10 16 0.00 0.00
11:53 am 11:53 Sunny 58 14.4 33 0.6 39 39 W 8 13 29.96 1014 10 16 0.00 0.00
12:53 pm 12:53 Sunny 59 15 33 0.6 38 38 NW 12 19 29.94 1014 10 16 0.00 0.00
1:53 pm 13:53 Sunny 60 15.6 33 0.6 36 36 NW 13 20 29.93 1014 10 16 0.00 0.00
2:53 pm 14:53 Sunny 59 15 33 0.6 38 38 WNW 12 19 29.95 1014 10 16 0.00 0.00
3:06 pm 15:06 Mostly Sunny 58 14.4 33 0.6 39 39 WNW 9 15 29.95 1014 10 16 0.00 0.00
3:53 pm 15:53 Sunny 58 14.4 33 0.6 39 39 WNW 10 17 29.96 1015 10 16 0.00 0.00
4:53 pm 16:53 Clear 53 11.7 33 0.6 47 47 NW 6 9 29.98 1015 10 16 0.00 0.00
5:53 pm 17:53 Clear 51 10.6 33 0.6 50 50 Calm 29.99 1016 10 16 0.00 0.00
6:53 pm 18:53 Clear 46 7.8 33 0.6 61 61 Calm 30.01 1016 10 16 0.00 0.00
7:53 pm 19:53 Clear 44 6.7 33 0.6 65 65 SW 3 6 30.00 1016 10 16 0.00 0.00
8:53 pm 20:53 Clear 44 6.7 33 0.6 65 65 W 3 6 30.02 1017 10 16 0.00 0.00
9:53 pm 21:53 Clear 46 7.8 33 0.6 61 61 W 5 7 30.04 1017 10 16 0.00 0.00
10:53 pm 22:53 Clear 43 6.1 33 0.6 68 68 Calm 30.04 1017 10 16 0.00 0.00
11:53 pm 23:53 Clear 38 3.3 33 0.6 83 83 SSE 3 6 30.04 1017 10 16 0.00 0.00

Powered by AerisWeather